Tracking 29892 objects as of 21-Nov-2024
HD Live streaming from Space Station
objects crossing your sky now

STARLINK-4020

Track STARLINK-4020 now!
10-day predictions
STARLINK-4020 is classified as:


NORAD ID: 52703
Int'l Code: 2022-053AZ
Perigee: 546.0 km
Apogee: 547.8 km
Inclination: 53.2 °
Period: 95.4 minutes
Semi major axis: 6917 km
RCS: Unknown
Launch date: May 18, 2022
Source: United States (US)
Launch site: AIR FORCE EASTERN TEST RANGE (AFETR)
Your satellite tracking list
Your tracking list is empty




NASA's NSSDC Master Catalog

Two Line Element Set (TLE):
1 52703U 22053AZ  24325.79319415  .00000735  00000-0  64225-4 0  9992
2 52703  53.2152 101.5362 0001303  88.2352 271.8789 15.08848461138492
Source of the keplerian elements: AFSPC